Baker, MT

5:19 AM MDT on April 20, 2018 (GMT -0600)
Baker Municipal

Weather History for KBHK - September, 2011

Change the Weather History Date:

Wednesday, September 14, 2011

  Actual Average Record
Temperature  
Mean Temperature 46 °F -  
Max Temperature 57 °F 80 °F 82 °F (2006)
Min Temperature 37 °F 41 °F 24 °F (2007)
Degree Days  
Heating Degree Days 19    
Moisture  
Dew Point 25 °F    
Average Humidity 46    
Maximum Humidity 74    
Minimum Humidity 23    
Precipitation  
Precipitation 0.00 in - - ()
Sea Level Pressure  
Sea Level Pressure 30.37 in    
Wind  
Wind Speed 9 mph (ESE)    
Max Wind Speed 15 mph    
Max Gust Speed 20 mph    
Visibility 10 miles    
Events Rain    
Averages and records for this station are not official NWS values.
T = Trace of Precipitation, MM = Missing Value Source: NWS Daily Summary

Daily Weather History Graph

Daily Weather History Graph

Search for Another Location

Airport or City:

Astronomy

Sep. 14, 2011 Rise Set
Actual Time 6:33 AM MDT 7:10 PM MDT
Civil Twilight 6:03 AM MDT 7:41 PM MDT
Nautical Twilight 5:27 AM MDT 8:17 PM MDT
Astronomical Twilight 4:49 AM MDT 8:54 PM MDT
Moon 7:42 PM MDT (9/14) 8:59 AM MDT (9/14)
Length of Visible Light 13h 37m
Length of Day
12h 37m
Waning Gibbous, 95% of the Moon is Illuminated
Sep 14
Waning Gibbous
Sep 20
Last Quarter
Sep 27
New
Oct 3
First Quarter
Oct 11
Full

Hourly Weather History & Observations

Time (MDT) Temp. Windchill Dew Point Humidity Pressure Visibility Wind Dir Wind Speed Gust Speed Precip Events Conditions
12:51 AM 46.9 °F - 33.1 °F 59% 30.34 in 10.0 mi ENE 8.1 mph - 0.00 in   Overcast
1:51 AM 46.0 °F 40.6 °F 32.0 °F 58% 30.34 in 10.0 mi East 11.5 mph - N/A   Overcast
2:51 AM 45.0 °F 40.6 °F 30.0 °F 56% 30.36 in 10.0 mi East 8.1 mph - 0.00 in Rain Light Rain
3:51 AM 43.0 °F 38.8 °F 35.1 °F 74% 30.37 in 10.0 mi ESE 6.9 mph - 0.00 in Rain Light Rain
4:51 AM 42.1 °F 36.6 °F 30.0 °F 62% 30.39 in 10.0 mi East 9.2 mph - 0.00 in   Overcast
5:51 AM 41.0 °F 36.4 °F 28.9 °F 62% 30.39 in 10.0 mi East 6.9 mph - N/A   Mostly Cloudy
6:51 AM 37.9 °F 33.5 °F 28.9 °F 70% 30.41 in 10.0 mi East 5.8 mph - N/A   Clear
7:51 AM 41.0 °F 35.2 °F 28.9 °F 62% 30.43 in 10.0 mi East 9.2 mph - N/A   Clear
8:51 AM 44.1 °F 37.4 °F 27.0 °F 51% 30.43 in 10.0 mi East 13.8 mph - N/A   Clear
9:51 AM 46.0 °F 41.0 °F 26.1 °F 46% 30.44 in 10.0 mi ESE 10.4 mph - N/A   Clear
10:51 AM 48.9 °F - 25.0 °F 39% 30.43 in 10.0 mi Variable 6.9 mph - N/A   Clear
11:51 AM 53.1 °F - 23.0 °F 31% 30.43 in 10.0 mi ESE 10.4 mph 16.1 mph N/A   Clear
12:51 PM 54.0 °F - 19.0 °F 25% 30.40 in 10.0 mi SE 8.1 mph - N/A   Clear
1:51 PM 55.9 °F - 18.0 °F 23% 30.38 in 10.0 mi ESE 11.5 mph 18.4 mph N/A   Clear
2:51 PM 55.0 °F - 18.0 °F 23% 30.37 in 10.0 mi SSE 8.1 mph 16.1 mph N/A   Clear
3:51 PM 55.9 °F - 18.0 °F 23% 30.35 in 10.0 mi SE 10.4 mph - N/A   Clear
4:51 PM 55.9 °F - 19.0 °F 24% 30.33 in 10.0 mi SE 15.0 mph 19.6 mph N/A   Clear
5:51 PM 55.0 °F - 21.0 °F 27% 30.32 in 10.0 mi ESE 11.5 mph - N/A   Clear
6:51 PM 52.0 °F - 21.0 °F 30% 30.33 in 10.0 mi ESE 11.5 mph - N/A   Clear
7:51 PM 46.0 °F 41.4 °F 21.9 °F 39% 30.32 in 10.0 mi ESE 9.2 mph - N/A   Clear
9:51 PM 37.9 °F 32.1 °F 23.0 °F 55% 30.33 in 10.0 mi ESE 8.1 mph - N/A   Clear
10:51 PM 37.9 °F 32.1 °F 21.9 °F 53% 30.31 in 10.0 mi ESE 8.1 mph - N/A   Clear
11:51 PM 39.0 °F 33.4 °F 28.0 °F 65% 30.30 in 10.0 mi SE 8.1 mph - N/A   Clear